Weather History for Edenton, NC

Change the Weather History Date:

Wednesday, December 18, 2013

  Actual Average Record
Temperature  
Mean Temperature 39 °F -  
Max Temperature 48 °F 52 °F 74 °F (1984)
Min Temperature 30 °F 32 °F 10 °F (1953)
Degree Days  
Heating Degree Days 26    
Moisture  
Dew Point 29 °F    
Average Humidity 66    
Maximum Humidity 88    
Minimum Humidity 36    
Precipitation  
Precipitation 0.00 in - - ()
Sea Level Pressure  
Sea Level Pressure 30.19 in    
Wind  
Wind Speed 7 mph (NW)    
Max Wind Speed 15 mph    
Max Gust Speed 22 mph    
Visibility 10 miles    
Events      
Averages and records for this station are not official NWS values.
T = Trace of Precipitation, MM = Missing Value Source: NWS Daily Summary

Daily Weather History Graph

Daily Weather History Graph

Search for Another Location

Airport:

Trip Planner

Search our weather history database for the weather conditions in past years. The results will help you decide how hot, cold, wet, or windy it might be!

Date:

Astronomy

Dec. 18, 2013 Rise Set
Actual Time 7:11 AM EST 4:54 PM EST
Civil Twilight 6:43 AM EST 5:23 PM EST
Nautical Twilight 6:10 AM EST 5:55 PM EST
Astronomical Twilight 5:39 AM EST 6:26 PM EST
Moon 6:21 PM EST (12/18) 7:52 AM EST (12/18)
Length of Visible Light 10h 40m
Length of Day
9h 42m
Full, 98% of the Moon is Illuminated
Dec 18
Full
Dec 25
Last Quarter
Jan 1
New
Jan 7
First Quarter
Jan 15
Full

Hourly Weather History & Observations

Time (EST) Temp. Windchill Dew Point Humidity Pressure Visibility Wind Dir Wind Speed Gust Speed Precip Events Conditions
12:15 AM 45.0 °F 39.3 °F 39.2 °F 80% 30.00 in 10.0 mi North 11.5 mph 17.3 mph N/A   Mostly Cloudy
12:35 AM 44.2 °F 39.7 °F 38.8 °F 81% 30.01 in 10.0 mi NNW 8.1 mph - N/A   Scattered Clouds
12:55 AM 43.2 °F 41.5 °F 38.3 °F 83% 30.01 in 10.0 mi NW 3.5 mph - N/A   Clear
1:15 AM 43.0 °F 40.3 °F 38.5 °F 84% 30.01 in 10.0 mi WNW 4.6 mph - N/A   Scattered Clouds
1:35 AM 42.4 °F 39.6 °F 38.5 °F 86% 30.01 in 10.0 mi West 4.6 mph - N/A   Clear
1:55 AM 43.0 °F 39.5 °F 39.4 °F 87% 30.02 in 10.0 mi West 5.8 mph - N/A   Clear
2:15 AM 42.8 °F 40.1 °F 39.2 °F 87% 30.02 in 10.0 mi West 4.6 mph - N/A   Clear
2:35 AM 43.2 °F 39.0 °F 39.2 °F 86% 30.03 in 10.0 mi West 6.9 mph - N/A   Clear
2:55 AM 43.2 °F 38.4 °F 38.3 °F 83% 30.04 in 10.0 mi WNW 8.1 mph 16.1 mph N/A   Clear
3:15 AM 42.3 °F 37.3 °F 36.5 °F 80% 30.05 in 10.0 mi NW 8.1 mph 17.3 mph N/A   Clear
3:35 AM 42.1 °F 35.2 °F 34.7 °F 75% 30.05 in 10.0 mi NW 12.7 mph 18.4 mph N/A   Clear
3:55 AM 43.0 °F 36.8 °F 32.5 °F 67% 30.05 in 10.0 mi NW 11.5 mph 21.9 mph N/A   Clear
4:15 AM 42.8 °F 35.8 °F 31.6 °F 65% 30.06 in 10.0 mi NW 13.8 mph 18.4 mph N/A   Clear
4:35 AM 42.4 °F 35.0 °F 31.1 °F 64% 30.07 in 10.0 mi NW 15.0 mph 18.4 mph N/A   Clear
4:55 AM 41.9 °F 36.3 °F 31.1 °F 66% 30.09 in 10.0 mi NW 9.2 mph - N/A   Clear
5:15 AM 41.0 °F 37.1 °F 31.1 °F 68% 30.10 in 10.0 mi NNW 5.8 mph - N/A   Clear
5:35 AM 39.9 °F 34.5 °F 31.1 °F 71% 30.11 in 10.0 mi NNW 8.1 mph - N/A   Clear
5:55 AM 39.4 °F 34.5 °F 31.5 °F 73% 30.12 in 10.0 mi NW 6.9 mph - N/A   Clear
6:15 AM 38.7 °F 33.6 °F 31.1 °F 74% 30.13 in 10.0 mi NNW 6.9 mph - N/A   Clear
6:35 AM 38.3 °F 33.2 °F 31.1 °F 75% 30.14 in 10.0 mi NNW 6.9 mph - N/A   Clear
6:55 AM 37.9 °F 33.5 °F 30.7 °F 75% 30.15 in 10.0 mi NNW 5.8 mph - N/A   Clear
7:15 AM 37.0 °F 33.3 °F 30.6 °F 77% 30.16 in 10.0 mi NNW 4.6 mph - N/A   Clear
7:35 AM 36.3 °F 31.6 °F 30.4 °F 79% 30.17 in 10.0 mi NNW 5.8 mph - N/A   Clear
7:55 AM 37.2 °F 32.6 °F 31.1 °F 79% 30.18 in 10.0 mi NNW 5.8 mph - N/A   Clear
8:15 AM 38.3 °F 33.9 °F 31.6 °F 77% 30.20 in 10.0 mi NNW 5.8 mph - N/A   Clear
8:35 AM 39.2 °F 33.6 °F 31.8 °F 75% 30.20 in 10.0 mi NW 8.1 mph - N/A   Clear
8:55 AM 40.1 °F 34.7 °F 31.5 °F 71% 30.21 in 10.0 mi NNW 8.1 mph - N/A   Clear
9:15 AM 41.2 °F 35.0 °F 30.2 °F 65% 30.22 in 10.0 mi NW 10.4 mph - N/A   Clear
9:35 AM 41.9 °F 34.6 °F 28.4 °F 59% 30.23 in 10.0 mi NNW 13.8 mph 21.9 mph N/A   Clear
9:55 AM 42.4 °F 35.7 °F 28.4 °F 58% 30.24 in 10.0 mi NNW 12.7 mph 18.4 mph N/A   Clear
10:15 AM 43.3 °F 37.7 °F 28.6 °F 56% 30.24 in 10.0 mi NNW 10.4 mph 16.1 mph N/A   Clear
10:35 AM 43.5 °F 37.9 °F 27.9 °F 54% 30.23 in 10.0 mi NNW 10.4 mph - N/A   Clear
10:55 AM 44.1 °F 37.7 °F 26.2 °F 50% 30.23 in 10.0 mi NNW 12.7 mph - N/A   Clear
11:15 AM 45.5 °F 39.6 °F 26.8 °F 48% 30.23 in 10.0 mi NW 12.7 mph 16.1 mph N/A   Clear
11:35 AM 45.1 °F 39.9 °F 24.8 °F 45% 30.23 in 10.0 mi NW 10.4 mph - N/A   Clear
11:55 AM 45.7 °F 41.0 °F 25.3 °F 45% 30.22 in 10.0 mi WNW 9.2 mph - N/A   Clear
12:15 PM 46.2 °F 40.8 °F 25.2 °F 44% 30.22 in 10.0 mi NNW 11.5 mph 18.4 mph N/A   Clear
12:35 PM 47.3 °F - 24.8 °F 41% 30.21 in 10.0 mi NW 11.5 mph 16.1 mph N/A   Clear
12:55 PM 47.3 °F - 23.9 °F 40% 30.20 in 10.0 mi NNW 9.2 mph - N/A   Clear
1:15 PM 47.3 °F - 23.7 °F 40% 30.20 in 10.0 mi NW 10.4 mph - N/A   Clear
1:35 PM 47.5 °F - 23.7 °F 39% 30.20 in 10.0 mi WNW 9.2 mph - N/A   Clear
1:55 PM 47.5 °F - 23.9 °F 40% 30.19 in 10.0 mi NNW 10.4 mph - N/A   Clear
2:15 PM 47.5 °F - 23.5 °F 39% 30.19 in 10.0 mi West 4.6 mph - N/A   Clear
2:35 PM 48.2 °F - 22.8 °F 37% 30.19 in 10.0 mi WNW 10.4 mph - N/A   Clear
2:55 PM 48.4 °F - 24.1 °F 39% 30.20 in 10.0 mi West 9.2 mph - N/A   Clear
3:15 PM 48.2 °F - 23.2 °F 37% 30.21 in 10.0 mi WNW 5.8 mph - N/A   Clear
3:35 PM 47.8 °F - 22.1 °F 36% 30.21 in 10.0 mi West 9.2 mph - N/A   Clear
3:55 PM 47.5 °F - 23.4 °F 39% 30.22 in 10.0 mi WNW 6.9 mph - N/A   Clear
4:15 PM 46.4 °F 42.4 °F 22.1 °F 38% 30.23 in 10.0 mi WNW 8.1 mph - N/A   Clear
4:35 PM 45.9 °F 41.7 °F 22.6 °F 40% 30.24 in 10.0 mi WNW 8.1 mph - N/A   Clear
4:55 PM 44.8 °F 41.6 °F 22.6 °F 42% 30.24 in 10.0 mi WNW 5.8 mph - N/A   Clear
5:15 PM 43.7 °F 41.1 °F 23.2 °F 44% 30.24 in 10.0 mi NW 4.6 mph - N/A   Clear
5:35 PM 41.2 °F 39.2 °F 25.5 °F 54% 30.25 in 10.0 mi NW 3.5 mph - N/A   Clear
5:55 PM 40.3 °F - 25.7 °F 56% 30.25 in 10.0 mi Calm Calm - N/A   Clear
6:15 PM 36.9 °F - 26.6 °F 66% 30.26 in 10.0 mi Calm Calm - N/A   Clear
6:35 PM 36.0 °F - 27.1 °F 70% 30.27 in 10.0 mi Calm Calm - N/A   Clear
6:55 PM 35.8 °F - 27.7 °F 72% 30.28 in 10.0 mi Calm Calm - N/A   Clear
7:15 PM 33.8 °F - 27.0 °F 76% 30.28 in 10.0 mi Calm Calm - N/A   Clear
7:35 PM 34.3 °F - 25.5 °F 70% 30.28 in 10.0 mi Calm Calm - N/A   Clear
7:55 PM 33.1 °F - 26.8 °F 78% 30.28 in 10.0 mi Calm Calm - N/A   Clear
8:15 PM 32.2 °F - 26.1 °F 78% 30.29 in 10.0 mi Calm Calm - N/A   Clear
8:35 PM 32.0 °F - 26.4 °F 80% 30.29 in 10.0 mi Calm Calm - N/A   Clear
8:55 PM 32.2 °F - 26.8 °F 80% 30.30 in 10.0 mi Calm Calm - N/A   Clear
9:15 PM 31.5 °F - 26.4 °F 82% 30.30 in 10.0 mi Calm Calm - N/A   Clear
9:35 PM 30.9 °F - 25.7 °F 81% 30.30 in 10.0 mi Calm Calm - N/A   Clear
9:55 PM 31.1 °F - 25.9 °F 81% 30.31 in 10.0 mi Calm Calm - N/A   Clear
10:15 PM 31.8 °F - 26.2 °F 80% 30.31 in 10.0 mi Calm Calm - N/A   Clear
10:35 PM 30.7 °F - 25.7 °F 82% 30.31 in 10.0 mi Calm Calm - N/A   Clear
10:55 PM 30.4 °F - 26.6 °F 86% 30.31 in 10.0 mi Calm Calm - N/A   Clear
11:15 PM 31.3 °F - 27.9 °F 87% 30.31 in 10.0 mi Calm Calm - N/A   Clear
11:35 PM 30.7 °F 27.3 °F 27.5 °F 88% 30.30 in 10.0 mi South 3.5 mph - N/A   Clear
11:55 PM 30.6 °F - 27.3 °F 88% 30.30 in 10.0 mi Calm Calm - N/A   Clear